sat.trackr.live / text

‹ back to catalog

INTELSAT 10-02

NORAD 28358 · 2004-022A

PAYLOAD ACTIVE UNKNOWN

§ Identity

Operator
Country
ITSO
Launch date
2004-06-16
Launch site
TYMSC
Launch vehicle
Mass (kg)
RCS (m²)
21.20

Purposes: comms

External: N2YO · Heavens-Above · Gunter

§ Orbital elements

Epoch: 2026-05-25T03:44:17.294208Z

Period
1,436.10 min
Inclination
0.0340°
Eccentricity
0.0000178
Mean motion
1.00271497 rev/d
Perigee alt
35,785.9 km
Apogee alt
35,787.4 km
Semi-major
42,164.8 km
B*
0.0000e+0
RAAN
57.9406°
Arg perigee
116.9213°
Mean anomaly
122.9759°
Rev number
8,032

§ Raw data

INTELSAT 10-021 28358U 04022A   26145.15575572 -.00000013  00000+0  00000+0 0  99922 28358   0.0340  57.9406 0000178 116.9213 122.9759  1.00271497 80324

JSON: /api/v1/satellites/28358 · /tle

For live sub-satellite position, see the globe view (requires WebGL).

§ Visibility from observer

Set your observer location to see the next 7 days of passes ≥ 10°. The values pass through the URL so the page stays shareable.

No JS? Fill the form by hand. The geolocation button needs JavaScript.